Temp_Advection
nan nan nan nan nan nan nan nan nan nan nan nan nan nan nan nan nan nan nan nan nan nan
nan 0 0 0 0 0 0 -0 -0 0 -0 -0 -0 -0 -0 0 0 0 0 0 0 nan
nan 0 0 0 0 0 0 0 0 0 0 0 0 -0 -0 0 0 0 0 0 0 nan
nan 1 0 0 0 1 0 -0 -0 -0 -0 0 0 0 0 0 0 0 0 0 0 nan
nan 0 0 0 1 1 1 0 0 -0 -0 -0 -0 0 0 0 0 0 0 0 0 nan
nan 0 0 0 1 1 1 1 0 -0 -0 -0 -0 -0 0 0 0 0 0 0 0 nan
nan 0 0 0 0 1 1 1 0 0 0 -0 -0 -0 0 -0 0 0 1 1 0 nan
nan 0 0 0 0 0 1 1 1 0 0 0 -0 -0 0 0 0 0 0 0 1 nan
nan 0 0 0 -0 -0 0 1 1 0 1 0 0 0 0 1 0 0 0 0 0 nan
nan -0 0 0 -0 -0 0 0 1 1 0 0 1 0 0 0 1 1 -0 0 1 nan
nan -0 -0 -0 -0 -0 -0 0 0 1 1 1 1 1 1 0 1 1 0 0 0 nan
nan -0 -0 -0 -0 -0 -0 -0 0 0 1 1 1 1 1 1 1 1 1 1 -0 nan
nan -0 -0 -0 -0 -0 -0 -0 -0 0 1 1 1 1 1 1 1 0 1 1 0 nan
nan nan nan nan nan nan nan nan nan nan nan nan nan nan nan nan nan nan nan nan nan nan
Wind_Speed
18 19 19 19 19 18 17 16 16 15 15 14 15 16 16 16 15 14 14 13 12 11
19 19 19 20 22 21 20 19 18 17 16 15 15 15 16 16 15 14 14 13 11 11
19 19 20 21 23 23 22 21 20 19 18 16 15 15 15 15 15 14 13 13 12 12
20 20 21 22 22 23 23 23 23 21 20 18 17 16 15 15 14 14 13 13 12 12
19 21 22 22 21 21 23 24 25 24 23 21 19 18 17 16 15 15 14 13 13 12
18 19 20 21 20 21 22 23 24 25 25 24 22 22 20 18 17 17 16 16 14 13
20 17 18 20 21 22 23 23 23 24 25 25 25 24 23 20 19 19 18 17 16 15
21 21 20 20 22 22 23 23 23 23 24 26 27 26 25 23 21 20 19 19 18 17
22 21 21 21 21 22 23 23 23 24 24 25 26 26 26 25 22 20 20 19 18 18
20 20 21 23 23 23 24 23 24 25 25 26 25 25 26 26 25 20 17 19 18 18
18 18 19 22 24 25 25 24 24 25 26 27 26 25 26 26 26 22 22 18 16 19
21 21 22 22 23 24 25 25 25 25 24 26 26 24 25 26 28 26 24 23 16 18
24 24 26 26 26 26 27 28 28 27 25 24 26 25 25 26 29 27 25 21 16 18
24 26 26 27 27 28 28 28 28 27 25 23 22 23 24 25 30 25 25 21 18 18
Wind_Direction
297 294 288 287 290 292 295 298 302 306 311 317 321 321 321 322 320 317 316 317 319 307
298 297 293 287 285 288 290 292 294 298 301 307 311 314 316 317 317 315 314 312 308 303
294 293 291 287 285 285 285 286 287 290 291 295 301 306 309 311 311 310 310 311 309 307
283 288 289 289 290 288 284 282 281 280 281 284 289 294 297 299 301 300 300 299 298 298
283 283 286 291 295 292 288 283 281 278 278 279 281 284 287 289 291 290 290 290 290 292
285 286 292 293 293 290 289 285 281 277 278 279 280 282 283 283 284 285 282 280 280 281
282 286 297 296 292 289 289 288 285 281 279 277 277 278 280 281 282 282 280 279 281 282
290 279 287 296 297 292 287 286 287 283 280 276 276 278 280 278 277 279 279 277 278 279
297 283 282 293 293 290 288 283 280 280 281 278 275 275 274 275 272 277 277 277 277 279
307 293 283 286 290 291 289 284 279 277 277 277 274 271 269 269 268 268 271 276 274 277
322 311 298 291 293 294 292 287 285 280 276 276 276 272 269 265 260 257 261 260 268 271
323 315 308 303 301 297 292 288 286 283 278 273 273 271 267 259 257 256 258 251 253 266
330 323 317 311 304 298 292 289 286 283 281 276 269 266 264 254 255 257 270 251 243 259
331 327 321 314 310 305 298 291 287 285 280 273 265 260 260 251 253 261 270 252 245 248
Height
1517 1515 1514 1513 1511 1510 1508 1507 1505 1503 1501 1499 1497 1495 1493 1491 1489 1487 1485 1483 1483 1482
1513 1511 1509 1508 1507 1506 1505 1503 1502 1500 1498 1496 1495 1493 1491 1489 1487 1485 1483 1481 1480 1477
1508 1506 1504 1502 1501 1500 1499 1498 1497 1496 1494 1493 1491 1490 1488 1486 1484 1482 1481 1479 1479 1478
1503 1502 1500 1497 1496 1494 1493 1492 1491 1490 1488 1487 1485 1484 1483 1482 1481 1479 1477 1476 1474 1473
1497 1496 1494 1492 1491 1490 1488 1487 1486 1486 1484 1483 1481 1479 1478 1477 1476 1475 1474 1472 1471 1470
1492 1490 1489 1487 1486 1484 1482 1481 1480 1480 1480 1479 1479 1477 1475 1474 1472 1471 1470 1468 1466 1465
1487 1486 1484 1482 1480 1479 1477 1476 1475 1474 1474 1474 1474 1473 1472 1470 1468 1467 1467 1466 1465 1464
1481 1479 1478 1476 1474 1473 1471 1470 1470 1469 1468 1467 1467 1467 1466 1466 1465 1464 1463 1462 1461 1461
1474 1473 1472 1471 1469 1467 1465 1464 1463 1461 1460 1459 1459 1460 1461 1461 1461 1460 1459 1459 1458 1458
1469 1468 1467 1465 1463 1461 1459 1457 1456 1455 1454 1452 1451 1451 1451 1452 1454 1454 1452 1453 1455 1455
1466 1463 1461 1459 1456 1455 1452 1450 1449 1449 1448 1447 1447 1447 1447 1446 1444 1446 1448 1447 1448 1449
1462 1459 1456 1453 1451 1448 1445 1443 1441 1440 1439 1440 1440 1440 1440 1440 1439 1441 1441 1442 1443 1443
1458 1454 1451 1447 1445 1442 1440 1437 1435 1433 1432 1433 1433 1434 1434 1434 1433 1434 1436 1435 1436 1438
1455 1451 1446 1442 1439 1436 1432 1429 1427 1425 1425 1425 1425 1427 1428 1429 1427 1429 1430 1430 1431 1432